This is the latest recevied weather packets stored in our database for station/object KC2G. If no packets are shown the sender has not sent any weather packets the latest 10 day(s).
| Time | Temp. | Humidity | Pressure | Rain* | Wind** | Luminosity | Snow |
|---|---|---|---|---|---|---|---|
| 1777523455 | 8.33° C | 99% | 1010.5 hPa | 3.81 mm | 0 m/s | - | - |
| 1777522618 | 8.33° C | 99% | 1011.1 hPa | 4.32 mm | 0 m/s | - | - |
| 1777522554 | 8.33° C | 99% | 1010.5 hPa | 2.29 mm | 0 m/s | - | - |
| 1777521655 | 8.33° C | 99% | 1010.9 hPa | 2.79 mm | 0 m/s | - | - |
| 1777520823 | 8.33° C | 99% | 1011.1 hPa | 4.32 mm | 0 m/s | - | - |
| 1777520755 | 8.33° C | 99% | 1011.1 hPa | 4.32 mm | 0 m/s | - | - |
| 1777519897 | 8.33° C | 99% | 1011 hPa | 5.33 mm | 0 m/s | - | - |
| 1777519855 | 8.33° C | 99% | 1011 hPa | 5.33 mm | 0 m/s | - | - |
| 1777518955 | 8.89° C | 99% | 1010.7 hPa | 4.83 mm | 0.45 m/s, 60° | - | - |
| 1777518055 | 8.89° C | 99% | 1011.1 hPa | 3.81 mm | 0 m/s | - | - |
| 1777517154 | 8.89° C | 99% | 1011.5 hPa | 5.08 mm | 0 m/s | - | - |
| 1777516255 | 8.89° C | 99% | 1011.5 hPa | 3.81 mm | 0 m/s | - | - |
| 1777515355 | 9.44° C | 99% | 1011.6 hPa | 3.3 mm | 0 m/s | - | - |
| 1777514455 | 9.44° C | 99% | 1011.5 hPa | 2.79 mm | 0 m/s | - | - |
| 1777513555 | 9.44° C | 99% | 1011.5 hPa | 0 mm | 0 m/s | - | - |
| 1777512655 | 12.78° C | 65% | 1010.5 hPa | 0 mm | 0.89 m/s, 65° | - | - |
| 1777511755 | 12.78° C | 65% | 1010.5 hPa | 0 mm | 0.89 m/s, 65° | - | - |
| 1777510855 | 12.78° C | 65% | 1010.5 hPa | 0 mm | 0.89 m/s, 65° | - | - |
| 1777509955 | 12.78° C | 65% | 1010.5 hPa | 0 mm | 0.89 m/s, 65° | - | - |
| 1777509055 | 12.78° C | 65% | 1010.5 hPa | 0 mm | 0.89 m/s, 65° | - | - |
| 1777508155 | 12.78° C | 65% | 1010.5 hPa | 0 mm | 0.89 m/s, 65° | - | - |
| 1777507255 | 12.78° C | 65% | 1010.6 hPa | 0 mm | 0.89 m/s, 79° | - | - |
| 1777506355 | 12.78° C | 65% | 1010.6 hPa | 0 mm | 0.89 m/s, 79° | - | - |
| 1777505499 | 12.78° C | 65% | 1010.6 hPa | 0 mm | 0.89 m/s, 79° | - | - |
| 1777505454 | 12.78° C | 65% | 1010.6 hPa | 0 mm | 0.89 m/s, 79° | - | - |
* Rain latest hour (hover to see other rain measurements)
** Current wind speed in m/s (hover to see current wind gust speed)